SCP
0 0 0 0 0 0 0 0 0 0 0 0 0 0 0 0 0 0 0 0 0 0 0 0 0 0 0 0 0 0 0 0 0 0 0 0 0 0 0 0 0 0 0 0 0 0 0 0 0
0 0 0 0 0 0 0 0 0 0 0 0 0 0 0 0 0 0 0 0 0 0 0 0 0 0 0 0 0 0 0 0 0 0 0 0 0 0 0 0 0 0 0 0 0 0 0 0 0
0 0 0 0 0 0 0 0 0 0 0 0 0 0 0 0 0 0 0 0 0 1 1 0 0 0 0 0 0 0 0 0 0 0 0 0 0 0 0 0 0 0 0 0 0 0 0 0 0
0 0 0 0 0 0 0 0 0 0 0 0 0 0 0 0 0 0 0 0 1 0 0 0 0 0 0 0 0 0 0 0 0 0 0 0 0 0 0 0 0 0 0 0 0 0 0 0 0
0 0 0 0 0 0 0 0 0 0 0 0 0 0 0 0 0 0 0 0 1 0 1 0 0 0 0 0 0 0 0 0 0 0 0 0 0 0 0 0 0 0 0 0 0 0 0 0 0
0 0 0 0 0 0 0 0 0 0 0 0 0 0 0 0 0 0 0 0 0 0 0 0 0 0 0 0 0 0 0 0 0 0 0 0 0 0 0 0 0 0 0 0 0 0 0 0 0
0 0 0 0 0 0 0 0 0 0 0 0 0 0 0 0 0 0 0 0 0 0 0 0 0 0 0 0 0 0 0 0 0 0 0 0 0 0 0 0 0 0 0 0 0 0 0 0 0
0 0 0 0 0 0 0 0 0 0 0 0 0 0 0 0 0 0 0 0 0 0 0 0 0 0 0 0 0 0 0 0 0 0 0 0 0 0 0 0 0 0 0 0 0 0 0 0 0
0 0 0 0 0 0 0 0 0 0 0 0 0 0 0 0 0 0 0 0 0 0 0 0 0 0 0 0 0 0 0 0 0 0 0 0 0 0 0 0 0 0 0 0 0 0 0 0 0
0 0 0 0 0 0 0 0 0 0 0 0 0 0 0 0 0 0 0 0 0 0 0 0 0 0 0 0 0 0 0 0 0 0 0 0 0 0 0 0 0 0 0 0 0 0 0 0 0
0 0 0 0 0 0 0 0 0 0 0 0 0 0 0 0 0 0 0 0 0 0 0 0 0 0 0 0 0 0 0 0 0 0 0 0 0 0 0 0 0 0 0 0 0 0 0 0 0
0 0 0 0 0 0 0 0 0 0 0 0 0 0 0 0 0 0 0 0 0 0 0 0 0 0 0 0 0 0 0 0 0 0 0 0 0 0 0 0 0 0 0 0 0 0 0 0 0
0 0 0 0 0 0 0 0 0 0 0 0 0 0 0 0 0 0 0 0 0 0 0 0 0 0 0 0 0 0 0 0 0 0 0 0 0 0 0 0 0 0 0 0 0 0 0 0 0
0 0 0 0 0 0 0 0 0 0 0 0 0 0 0 0 0 0 0 0 0 0 0 0 0 0 0 0 0 0 0 0 0 0 0 0 0 0 0 0 0 0 0 0 0 0 0 0 0
0 0 0 0 0 0 0 0 0 0 0 0 0 0 0 0 0 0 0 0 0 0 0 0 0 0 0 0 0 0 0 0 0 0 0 0 0 0 0 0 0 0 0 0 0 0 0 0 0
0 0 0 0 0 0 0 0 0 0 0 0 0 0 0 0 0 0 0 0 0 0 0 0 0 0 0 0 0 0 0 0 0 0 0 0 0 0 0 0 0 0 0 0 0 0 0 0 0
0 0 0 0 0 0 0 0 0 0 0 0 0 0 0 0 0 0 0 0 0 0 0 0 0 0 0 0 0 0 0 0 0 0 0 0 0 0 0 0 0 0 0 0 0 0 0 0 0
0 0 0 0 0 0 0 0 0 0 0 0 0 0 0 0 0 0 0 0 0 0 0 0 0 0 0 0 0 0 0 0 0 0 0 0 0 0 0 0 0 0 0 0 0 0 0 0 0
0 0 0 0 0 0 0 0 0 0 0 0 0 0 0 0 0 0 0 0 0 0 0 0 0 0 0 0 0 0 0 0 0 0 0 0 0 0 0 0 0 0 0 0 0 0 0 0 0
0 0 0 0 0 0 0 0 0 0 0 0 0 0 0 0 0 0 0 0 0 0 0 0 0 0 0 0 0 0 0 0 0 0 0 0 0 0 0 0 0 0 0 0 0 0 0 0 0
0 0 0 0 0 -0 -0 -0 0 0 0 0 0 0 0 0 0 0 0 0 0 0 0 0 0 0 0 0 0 0 0 0 0 0 0 0 0 0 0 0 0 0 0 0 0 0 0 0 0
0 0 0 0 0 0 0 -0 -0 0 0 0 0 0 0 0 0 0 0 0 0 0 0 0 0 0 0 0 0 0 0 0 0 0 0 0 0 0 0 0 0 0 0 0 0 0 0 0 0
0 0 0 0 0 0 0 0 -0 -0 0 0 0 0 0 0 0 0 0 0 0 0 0 0 0 0 0 0 0 0 0 0 0 0 0 0 0 0 0 0 0 0 0 0 0 0 0 0 0
0 0 0 0 0 0 0 0 -0 -0 0 0 0 0 0 0 0 0 0 0 0 0 0 0 0 0 0 0 0 0 0 0 0 0 0 0 0 0 0 0 0 0 0 0 0 0 0 0 0
0 0 0 0 0 0 0 0 0 -0 0 0 0 0 0 0 0 0 0 0 0 0 0 0 0 0 0 0 0 0 0 0 0 0 0 0 0 0 0 0 0 0 0 0 0 0 0 0 0
0 0 0 0 0 0 0 0 -0 -0 0 0 0 0 0 0 0 0 0 0 0 0 0 0 0 0 0 0 0 0 0 0 0 0 0 0 0 0 0 0 0 0 0 0 0 0 0 0 0
0 0 0 0 0 0 0 0 0 0 0 0 0 0 0 0 0 0 0 0 0 0 0 0 0 0 0 0 0 0 0 0 0 0 0 0 0 0 0 0 0 0 0 0 0 0 0 0 0
0 0 0 0 0 0 0 0 0 0 0 0 0 0 0 0 0 0 0 0 0 0 0 0 0 0 0 0 0 0 0 0 0 0 0 0 0 0 0 0 0 0 0 0 0 0 0 0 0
0 0 0 0 0 0 -0 -0 -0 -0 0 -0 0 0 0 0 0 0 0 0 0 0 0 0 0 0 0 0 0 0 0 0 0 0 0 0 0 0 0 0 0 0 0 0 0 0 0 0 0
0 0 0 0 0 0 0 -0 0 0 0 -0 0 0 0 0 0 0 0 0 0 0 0 0 0 0 0 0 0 0 0 0 0 0 0 0 0 -0 -0 -0 0 0 0 0 0 0 0 0 0
Wind_Speed_500mb
23 16 11 6 5 7 7 12 5 8 6 4 3 8 10 8 8 8 30 32 36 27 31 30 26 22 22 25 26 24 22 21 20 19 18 17 16 13 11 11 10 9 8 8 10 13 15 18 20
22 17 12 6 7 3 9 8 13 15 10 12 16 12 3 4 9 13 35 32 28 23 24 29 28 26 22 22 23 22 21 19 18 16 15 15 13 12 10 7 6 6 7 7 9 10 13 17 20
23 21 11 8 8 12 9 11 16 9 12 12 4 2 7 5 12 30 30 35 28 23 26 27 28 26 23 22 21 21 20 18 16 14 12 11 11 10 9 9 10 10 11 12 13 15 16 17 20
22 13 4 6 16 11 12 6 9 8 6 14 4 4 7 10 24 25 39 35 32 34 28 29 30 26 23 21 20 20 20 18 16 14 13 12 13 13 14 14 14 15 16 17 17 18 20 22 24
29 9 4 6 16 9 9 21 24 10 4 7 4 7 6 18 25 29 38 37 33 33 31 32 31 27 23 21 19 18 18 18 17 16 15 15 15 16 16 15 15 14 15 17 18 20 22 24 27
12 6 4 24 17 7 11 32 20 13 28 23 7 9 11 25 26 40 40 39 36 34 33 33 33 30 27 26 23 20 18 17 17 17 16 16 16 16 16 17 18 19 18 17 18 20 23 27 28
10 6 9 6 14 16 14 11 12 20 30 18 15 13 9 33 33 40 41 37 36 31 28 30 32 30 25 22 20 19 18 18 17 16 17 18 18 19 19 21 22 24 25 26 26 29 30 31 34
10 6 6 11 13 11 8 14 18 18 20 24 33 13 12 42 44 46 40 40 39 36 29 30 29 26 22 20 19 19 19 19 20 19 19 19 19 18 18 18 18 19 21 25 30 36 37 39 39
9 3 13 23 16 10 3 5 6 6 9 12 26 15 19 41 52 50 48 47 40 39 34 31 27 24 21 18 18 18 18 19 18 16 16 15 14 14 14 15 17 20 23 26 29 32 34 37 41
11 10 17 6 9 7 4 5 5 4 9 11 17 25 20 46 55 56 53 48 43 42 41 35 30 25 21 20 21 21 21 21 20 19 18 17 17 18 19 22 25 28 32 35 39 43 46 48 50
13 15 25 4 13 17 7 7 8 5 8 17 29 35 34 52 58 57 54 49 45 42 40 36 32 25 23 23 24 24 24 23 20 19 17 15 14 16 20 25 30 35 39 43 47 50 53 56 60
6 21 32 11 39 8 5 5 6 14 11 7 14 24 41 54 62 61 57 53 50 47 41 37 31 24 22 21 22 22 21 20 18 16 15 15 18 23 28 33 37 42 46 48 51 52 54 56 59
10 11 13 41 49 26 19 19 18 23 28 22 17 23 42 53 61 63 58 51 47 46 43 37 30 25 21 22 23 23 22 21 19 18 19 22 25 28 33 39 44 47 49 50 52 53 55 58 61
8 16 44 41 27 24 15 14 15 21 32 36 27 27 39 54 60 65 62 56 53 49 45 39 32 26 22 23 24 24 23 21 20 20 22 25 29 34 41 46 49 49 49 50 52 55 57 59 63
15 16 16 12 21 15 15 22 22 45 44 37 40 42 39 52 62 67 64 63 59 56 48 43 37 29 24 24 26 26 25 24 23 22 25 29 35 41 47 48 47 47 47 50 53 55 58 61 63
6 4 6 6 16 13 28 47 6 26 55 65 68 60 60 60 65 66 67 65 63 58 54 49 43 33 28 28 30 29 27 25 24 25 27 33 40 45 46 46 47 48 50 53 56 58 62 63 65
6 9 9 13 17 7 13 18 9 34 51 53 57 61 68 70 77 76 73 71 68 62 60 57 49 39 32 32 32 30 29 27 26 27 31 37 41 43 44 45 47 48 49 51 56 57 64 67 69
8 8 8 11 3 3 2 32 22 14 21 33 36 46 64 69 85 77 77 74 71 66 65 62 53 44 39 38 35 34 31 29 27 29 34 38 40 41 41 43 44 45 46 50 55 60 61 66 72
2 5 8 6 5 6 14 28 39 29 31 34 59 60 48 58 69 69 76 76 72 67 70 70 59 52 45 42 37 36 33 29 28 30 34 36 38 39 38 38 40 45 49 54 58 62 64 66 66
10 9 14 13 7 8 13 25 36 17 24 48 60 61 74 61 58 69 75 79 75 71 73 71 63 53 47 42 36 36 32 29 28 31 33 34 35 34 34 37 42 48 51 53 56 58 60 59 54
7 12 12 19 9 7 11 18 24 14 32 44 57 69 67 69 62 73 78 79 74 75 76 73 65 57 50 45 40 37 33 30 29 30 30 31 30 31 35 40 46 50 54 57 57 54 50 50 49
12 15 19 17 1 8 5 11 12 13 19 12 35 58 73 71 70 73 85 86 83 80 76 70 66 59 54 48 42 38 33 28 27 28 27 26 27 31 37 43 48 52 55 56 55 49 44 40 41
15 2 7 5 7 5 4 2 15 5 14 19 20 52 63 77 77 82 87 90 87 84 80 73 68 62 57 49 45 39 32 27 26 26 24 23 27 33 39 44 49 53 54 53 48 42 38 34 33
4 4 8 8 3 4 16 15 10 9 18 15 9 21 47 57 71 79 85 83 84 82 79 76 71 65 59 52 46 40 33 27 25 25 22 22 26 32 38 44 49 52 51 45 39 36 34 33 33
3 3 5 7 6 13 6 7 15 14 23 12 13 20 18 33 55 69 81 92 91 88 85 80 73 68 60 54 48 40 32 28 26 23 20 21 25 30 37 43 47 47 42 39 34 32 32 31 32
15 10 9 12 6 10 3 15 12 19 21 37 43 45 45 28 43 62 74 91 94 91 88 82 74 68 61 55 48 40 34 28 25 22 19 20 24 30 37 43 45 42 38 38 36 33 32 30 30
7 6 6 7 5 4 11 16 16 27 18 16 26 23 34 39 42 57 66 83 93 92 89 81 74 66 61 55 48 40 33 28 25 21 18 19 22 28 34 39 38 37 36 35 34 32 30 29 29
7 2 5 4 6 10 10 12 12 22 14 18 16 16 27 33 42 54 63 78 90 87 84 78 69 63 60 54 46 39 34 29 25 21 18 18 19 24 29 32 35 36 35 33 31 28 26 27 24
3 3 3 7 9 8 5 11 13 16 8 11 19 38 24 24 38 47 57 71 85 87 83 75 68 64 61 54 47 41 34 31 28 23 18 16 15 20 25 29 36 35 31 31 31 30 30 31 31
6 11 13 8 10 8 5 19 16 6 11 6 13 32 21 16 27 39 51 63 79 85 82 75 68 64 61 53 47 42 37 33 30 23 18 14 12 16 20 22 30 32 32 33 32 30 31 33 33
Wind_Direction_500mb
225 220 204 167 58 62 255 248 274 277 264 229 183 171 186 123 165 204 153 157 159 159 168 169 172 174 172 167 167 168 168 166 162 160 160 163 162 159 159 156 166 177 186 194 204 203 205 226 231
215 200 176 134 119 206 257 226 232 235 230 132 115 107 96 167 160 154 157 154 161 162 169 171 171 170 172 174 170 172 172 175 176 173 175 180 187 185 190 197 208 214 220 226 238 237 231 235 241
201 182 161 148 178 203 230 212 236 272 308 188 144 112 158 199 178 161 165 164 158 180 186 181 177 171 173 175 181 182 181 183 188 194 199 206 213 226 241 245 253 260 263 262 254 253 248 242 240
183 172 124 148 225 247 207 228 197 331 28 268 251 160 158 170 164 165 161 165 175 177 184 183 177 177 176 181 186 191 192 195 201 211 218 226 234 242 248 255 260 268 274 275 275 271 268 265 260
175 161 182 234 242 236 229 253 282 292 291 289 215 242 183 173 168 163 161 167 179 178 177 178 177 179 182 183 188 198 200 203 208 217 226 233 236 239 246 251 259 269 275 278 278 279 276 270 268
168 158 158 226 229 219 250 248 251 253 275 266 201 171 180 179 181 167 167 175 175 182 182 179 180 184 189 193 195 204 214 216 220 225 231 241 246 246 249 252 257 254 253 265 271 275 277 278 274
157 140 209 260 249 249 237 205 193 230 253 237 210 162 203 182 185 181 177 178 186 191 192 184 184 189 191 193 198 203 215 222 226 233 240 242 246 251 255 258 261 263 262 262 265 269 273 272 275
207 145 198 227 223 265 203 191 227 214 256 245 213 187 215 194 183 184 187 192 192 187 187 188 186 189 193 196 199 203 209 221 229 233 237 241 245 251 257 262 266 266 265 267 268 265 264 267 267
187 210 221 228 212 234 229 180 205 235 203 188 185 207 216 195 183 190 189 195 187 180 187 190 191 192 194 198 203 206 206 209 210 213 217 222 231 240 253 266 275 281 284 286 285 284 283 280 277
181 201 232 211 194 246 256 233 246 233 194 222 211 210 198 190 191 192 196 201 191 187 185 187 187 191 198 209 216 220 224 225 223 222 226 232 241 253 265 274 280 284 285 285 285 284 283 281 279
206 233 231 240 243 247 242 234 214 193 227 217 215 217 195 190 197 199 198 201 194 191 191 187 190 200 214 223 227 227 225 224 224 224 227 234 248 263 275 282 286 288 288 287 286 285 284 283 282
239 232 243 262 248 240 230 267 261 207 234 251 254 229 207 195 202 202 201 199 197 197 195 195 198 206 214 218 220 217 211 210 212 218 231 250 268 279 287 291 293 293 292 290 289 287 285 284 282
236 248 251 244 258 261 269 248 248 252 261 256 258 234 212 208 209 207 205 202 203 203 202 203 206 208 214 221 218 212 210 213 220 236 255 268 279 288 295 299 300 299 297 296 294 293 292 290 287
230 239 245 257 257 253 228 247 198 246 258 243 240 232 220 216 217 211 207 207 209 208 210 211 211 212 220 221 218 216 218 225 237 253 268 281 290 298 304 306 304 302 300 299 299 299 298 297 296
269 267 282 233 223 231 216 264 232 245 250 252 247 235 228 224 220 219 219 212 213 211 214 216 216 218 223 224 222 223 227 235 248 264 278 290 300 307 307 304 302 301 304 307 307 306 304 302 299
261 216 228 217 168 236 188 254 294 246 243 246 249 242 237 227 225 226 224 221 217 216 217 219 218 219 221 224 225 229 234 243 255 268 283 296 304 305 304 304 305 308 312 312 311 310 307 304 301
254 250 241 313 198 161 192 266 237 246 237 240 248 248 243 235 227 226 223 222 221 221 220 219 218 219 223 226 227 233 238 247 258 274 290 299 302 303 305 307 310 313 314 314 313 312 310 309 306
216 233 247 241 281 119 166 264 256 224 225 237 250 256 248 242 234 226 223 220 219 220 220 218 218 219 222 222 227 232 238 248 262 280 293 299 301 303 306 310 313 315 317 316 312 311 309 308 307
65 230 266 273 282 234 236 255 265 255 248 244 254 252 254 247 236 227 223 219 217 216 213 212 216 219 223 222 228 232 236 247 265 282 292 296 300 304 310 314 317 318 318 319 318 314 313 311 312
255 261 269 280 257 200 286 269 270 245 240 240 238 243 251 247 237 222 216 214 215 214 210 211 214 222 224 223 231 231 234 246 264 280 289 295 300 307 312 315 318 321 320 318 319 319 316 314 318
243 230 253 249 326 253 304 274 266 261 251 248 242 248 249 243 231 216 211 212 212 211 210 212 216 220 221 223 230 226 234 248 265 280 288 294 301 306 314 320 322 321 322 321 320 317 316 314 314
266 211 238 250 255 238 91 287 269 259 271 233 245 239 241 238 230 219 211 213 215 214 211 215 216 218 220 223 226 226 237 252 270 278 283 291 300 312 319 323 322 322 321 319 317 316 314 312 312
228 171 194 210 195 333 225 347 269 300 290 269 247 239 240 236 226 219 214 214 214 214 211 212 213 216 219 223 221 226 237 252 270 279 286 296 309 318 321 321 323 324 322 319 317 314 310 308 307
121 90 65 44 73 322 221 194 254 192 222 248 245 252 246 236 230 224 219 213 211 209 207 209 211 214 216 218 219 225 235 254 272 279 284 296 309 318 320 325 329 327 324 324 322 317 313 311 307
136 140 5 327 350 232 332 239 251 267 263 245 265 284 277 244 227 222 215 208 208 205 202 206 209 212 213 214 218 225 237 255 268 274 282 297 312 318 326 333 332 331 331 332 329 328 324 322 316
175 161 165 202 248 292 74 240 244 249 272 269 265 265 263 263 225 219 214 207 204 201 200 204 207 210 212 213 218 226 239 255 264 268 278 300 315 327 339 337 339 340 338 336 334 331 327 326 321
227 191 174 56 83 23 244 287 286 282 270 274 262 268 259 245 227 217 212 207 201 199 202 204 206 209 211 215 220 228 241 254 258 264 280 300 316 339 340 340 344 346 345 340 336 330 328 330 331
166 219 80 23 238 262 276 274 240 304 310 349 320 281 278 247 223 212 210 206 202 201 203 204 208 211 211 215 222 231 240 250 254 258 274 293 326 340 339 346 353 357 351 343 339 337 330 320 314
128 279 11 138 159 211 300 264 222 259 6 350 322 330 311 247 223 214 210 207 204 202 204 205 206 209 211 217 224 232 240 245 244 248 265 288 330 340 335 357 3 357 355 351 350 351 344 333 324
180 208 179 174 232 229 189 266 279 240 307 297 347 0 348 297 246 225 216 209 206 205 205 206 207 210 214 220 226 231 236 239 241 245 259 279 322 331 326 1 10 358 1 3 359 358 355 348 341
Wind_Speed_850mb
23 16 11 6 5 7 7 12 5 8 6 4 3 8 10 8 8 8 30 32 36 27 31 30 26 22 22 25 26 24 22 21 20 19 18 17 16 13 11 11 10 9 8 8 10 13 15 18 20
22 17 12 6 7 3 9 8 13 15 10 12 16 12 3 4 9 13 35 32 28 23 24 29 28 26 22 22 23 22 21 19 18 16 15 15 13 12 10 7 6 6 7 7 9 10 13 17 20
23 21 11 8 8 12 9 11 16 9 12 12 4 2 7 5 12 30 30 35 28 23 26 27 28 26 23 22 21 21 20 18 16 14 12 11 11 10 9 9 10 10 11 12 13 15 16 17 20
22 13 4 6 16 11 12 6 9 8 6 14 4 4 7 10 24 25 39 35 32 34 28 29 30 26 23 21 20 20 20 18 16 14 13 12 13 13 14 14 14 15 16 17 17 18 20 22 24
29 9 4 6 16 9 9 21 24 10 4 7 4 7 6 18 25 29 38 37 33 33 31 32 31 27 23 21 19 18 18 18 17 16 15 15 15 16 16 15 15 14 15 17 18 20 22 24 27
12 6 4 24 17 7 11 32 20 13 28 23 7 9 11 25 26 40 40 39 36 34 33 33 33 30 27 26 23 20 18 17 17 17 16 16 16 16 16 17 18 19 18 17 18 20 23 27 28
10 6 9 6 14 16 14 11 12 20 30 18 15 13 9 33 33 40 41 37 36 31 28 30 32 30 25 22 20 19 18 18 17 16 17 18 18 19 19 21 22 24 25 26 26 29 30 31 34
10 6 6 11 13 11 8 14 18 18 20 24 33 13 12 42 44 46 40 40 39 36 29 30 29 26 22 20 19 19 19 19 20 19 19 19 19 18 18 18 18 19 21 25 30 36 37 39 39
9 3 13 23 16 10 3 5 6 6 9 12 26 15 19 41 52 50 48 47 40 39 34 31 27 24 21 18 18 18 18 19 18 16 16 15 14 14 14 15 17 20 23 26 29 32 34 37 41
11 10 17 6 9 7 4 5 5 4 9 11 17 25 20 46 55 56 53 48 43 42 41 35 30 25 21 20 21 21 21 21 20 19 18 17 17 18 19 22 25 28 32 35 39 43 46 48 50
13 15 25 4 13 17 7 7 8 5 8 17 29 35 34 52 58 57 54 49 45 42 40 36 32 25 23 23 24 24 24 23 20 19 17 15 14 16 20 25 30 35 39 43 47 50 53 56 60
6 21 32 11 39 8 5 5 6 14 11 7 14 24 41 54 62 61 57 53 50 47 41 37 31 24 22 21 22 22 21 20 18 16 15 15 18 23 28 33 37 42 46 48 51 52 54 56 59
10 11 13 41 49 26 19 19 18 23 28 22 17 23 42 53 61 63 58 51 47 46 43 37 30 25 21 22 23 23 22 21 19 18 19 22 25 28 33 39 44 47 49 50 52 53 55 58 61
8 16 44 41 27 24 15 14 15 21 32 36 27 27 39 54 60 65 62 56 53 49 45 39 32 26 22 23 24 24 23 21 20 20 22 25 29 34 41 46 49 49 49 50 52 55 57 59 63
15 16 16 12 21 15 15 22 22 45 44 37 40 42 39 52 62 67 64 63 59 56 48 43 37 29 24 24 26 26 25 24 23 22 25 29 35 41 47 48 47 47 47 50 53 55 58 61 63
6 4 6 6 16 13 28 47 6 26 55 65 68 60 60 60 65 66 67 65 63 58 54 49 43 33 28 28 30 29 27 25 24 25 27 33 40 45 46 46 47 48 50 53 56 58 62 63 65
6 9 9 13 17 7 13 18 9 34 51 53 57 61 68 70 77 76 73 71 68 62 60 57 49 39 32 32 32 30 29 27 26 27 31 37 41 43 44 45 47 48 49 51 56 57 64 67 69
8 8 8 11 3 3 2 32 22 14 21 33 36 46 64 69 85 77 77 74 71 66 65 62 53 44 39 38 35 34 31 29 27 29 34 38 40 41 41 43 44 45 46 50 55 60 61 66 72
2 5 8 6 5 6 14 28 39 29 31 34 59 60 48 58 69 69 76 76 72 67 70 70 59 52 45 42 37 36 33 29 28 30 34 36 38 39 38 38 40 45 49 54 58 62 64 66 66
10 9 14 13 7 8 13 25 36 17 24 48 60 61 74 61 58 69 75 79 75 71 73 71 63 53 47 42 36 36 32 29 28 31 33 34 35 34 34 37 42 48 51 53 56 58 60 59 54
7 12 12 19 9 7 11 18 24 14 32 44 57 69 67 69 62 73 78 79 74 75 76 73 65 57 50 45 40 37 33 30 29 30 30 31 30 31 35 40 46 50 54 57 57 54 50 50 49
12 15 19 17 1 8 5 11 12 13 19 12 35 58 73 71 70 73 85 86 83 80 76 70 66 59 54 48 42 38 33 28 27 28 27 26 27 31 37 43 48 52 55 56 55 49 44 40 41
15 2 7 5 7 5 4 2 15 5 14 19 20 52 63 77 77 82 87 90 87 84 80 73 68 62 57 49 45 39 32 27 26 26 24 23 27 33 39 44 49 53 54 53 48 42 38 34 33
4 4 8 8 3 4 16 15 10 9 18 15 9 21 47 57 71 79 85 83 84 82 79 76 71 65 59 52 46 40 33 27 25 25 22 22 26 32 38 44 49 52 51 45 39 36 34 33 33
3 3 5 7 6 13 6 7 15 14 23 12 13 20 18 33 55 69 81 92 91 88 85 80 73 68 60 54 48 40 32 28 26 23 20 21 25 30 37 43 47 47 42 39 34 32 32 31 32
15 10 9 12 6 10 3 15 12 19 21 37 43 45 45 28 43 62 74 91 94 91 88 82 74 68 61 55 48 40 34 28 25 22 19 20 24 30 37 43 45 42 38 38 36 33 32 30 30
7 6 6 7 5 4 11 16 16 27 18 16 26 23 34 39 42 57 66 83 93 92 89 81 74 66 61 55 48 40 33 28 25 21 18 19 22 28 34 39 38 37 36 35 34 32 30 29 29
7 2 5 4 6 10 10 12 12 22 14 18 16 16 27 33 42 54 63 78 90 87 84 78 69 63 60 54 46 39 34 29 25 21 18 18 19 24 29 32 35 36 35 33 31 28 26 27 24
3 3 3 7 9 8 5 11 13 16 8 11 19 38 24 24 38 47 57 71 85 87 83 75 68 64 61 54 47 41 34 31 28 23 18 16 15 20 25 29 36 35 31 31 31 30 30 31 31
6 11 13 8 10 8 5 19 16 6 11 6 13 32 21 16 27 39 51 63 79 85 82 75 68 64 61 53 47 42 37 33 30 23 18 14 12 16 20 22 30 32 32 33 32 30 31 33 33
Wind_Direction_850mb
225 220 204 167 58 62 255 248 274 277 264 229 183 171 186 123 165 204 153 157 159 159 168 169 172 174 172 167 167 168 168 166 162 160 160 163 162 159 159 156 166 177 186 194 204 203 205 226 231
215 200 176 134 119 206 257 226 232 235 230 132 115 107 96 167 160 154 157 154 161 162 169 171 171 170 172 174 170 172 172 175 176 173 175 180 187 185 190 197 208 214 220 226 238 237 231 235 241
201 182 161 148 178 203 230 212 236 272 308 188 144 112 158 199 178 161 165 164 158 180 186 181 177 171 173 175 181 182 181 183 188 194 199 206 213 226 241 245 253 260 263 262 254 253 248 242 240
183 172 124 148 225 247 207 228 197 331 28 268 251 160 158 170 164 165 161 165 175 177 184 183 177 177 176 181 186 191 192 195 201 211 218 226 234 242 248 255 260 268 274 275 275 271 268 265 260
175 161 182 234 242 236 229 253 282 292 291 289 215 242 183 173 168 163 161 167 179 178 177 178 177 179 182 183 188 198 200 203 208 217 226 233 236 239 246 251 259 269 275 278 278 279 276 270 268
168 158 158 226 229 219 250 248 251 253 275 266 201 171 180 179 181 167 167 175 175 182 182 179 180 184 189 193 195 204 214 216 220 225 231 241 246 246 249 252 257 254 253 265 271 275 277 278 274
157 140 209 260 249 249 237 205 193 230 253 237 210 162 203 182 185 181 177 178 186 191 192 184 184 189 191 193 198 203 215 222 226 233 240 242 246 251 255 258 261 263 262 262 265 269 273 272 275
207 145 198 227 223 265 203 191 227 214 256 245 213 187 215 194 183 184 187 192 192 187 187 188 186 189 193 196 199 203 209 221 229 233 237 241 245 251 257 262 266 266 265 267 268 265 264 267 267
187 210 221 228 212 234 229 180 205 235 203 188 185 207 216 195 183 190 189 195 187 180 187 190 191 192 194 198 203 206 206 209 210 213 217 222 231 240 253 266 275 281 284 286 285 284 283 280 277
181 201 232 211 194 246 256 233 246 233 194 222 211 210 198 190 191 192 196 201 191 187 185 187 187 191 198 209 216 220 224 225 223 222 226 232 241 253 265 274 280 284 285 285 285 284 283 281 279
206 233 231 240 243 247 242 234 214 193 227 217 215 217 195 190 197 199 198 201 194 191 191 187 190 200 214 223 227 227 225 224 224 224 227 234 248 263 275 282 286 288 288 287 286 285 284 283 282
239 232 243 262 248 240 230 267 261 207 234 251 254 229 207 195 202 202 201 199 197 197 195 195 198 206 214 218 220 217 211 210 212 218 231 250 268 279 287 291 293 293 292 290 289 287 285 284 282
236 248 251 244 258 261 269 248 248 252 261 256 258 234 212 208 209 207 205 202 203 203 202 203 206 208 214 221 218 212 210 213 220 236 255 268 279 288 295 299 300 299 297 296 294 293 292 290 287
230 239 245 257 257 253 228 247 198 246 258 243 240 232 220 216 217 211 207 207 209 208 210 211 211 212 220 221 218 216 218 225 237 253 268 281 290 298 304 306 304 302 300 299 299 299 298 297 296
269 267 282 233 223 231 216 264 232 245 250 252 247 235 228 224 220 219 219 212 213 211 214 216 216 218 223 224 222 223 227 235 248 264 278 290 300 307 307 304 302 301 304 307 307 306 304 302 299
261 216 228 217 168 236 188 254 294 246 243 246 249 242 237 227 225 226 224 221 217 216 217 219 218 219 221 224 225 229 234 243 255 268 283 296 304 305 304 304 305 308 312 312 311 310 307 304 301
254 250 241 313 198 161 192 266 237 246 237 240 248 248 243 235 227 226 223 222 221 221 220 219 218 219 223 226 227 233 238 247 258 274 290 299 302 303 305 307 310 313 314 314 313 312 310 309 306
216 233 247 241 281 119 166 264 256 224 225 237 250 256 248 242 234 226 223 220 219 220 220 218 218 219 222 222 227 232 238 248 262 280 293 299 301 303 306 310 313 315 317 316 312 311 309 308 307
65 230 266 273 282 234 236 255 265 255 248 244 254 252 254 247 236 227 223 219 217 216 213 212 216 219 223 222 228 232 236 247 265 282 292 296 300 304 310 314 317 318 318 319 318 314 313 311 312
255 261 269 280 257 200 286 269 270 245 240 240 238 243 251 247 237 222 216 214 215 214 210 211 214 222 224 223 231 231 234 246 264 280 289 295 300 307 312 315 318 321 320 318 319 319 316 314 318
243 230 253 249 326 253 304 274 266 261 251 248 242 248 249 243 231 216 211 212 212 211 210 212 216 220 221 223 230 226 234 248 265 280 288 294 301 306 314 320 322 321 322 321 320 317 316 314 314
266 211 238 250 255 238 91 287 269 259 271 233 245 239 241 238 230 219 211 213 215 214 211 215 216 218 220 223 226 226 237 252 270 278 283 291 300 312 319 323 322 322 321 319 317 316 314 312 312
228 171 194 210 195 333 225 347 269 300 290 269 247 239 240 236 226 219 214 214 214 214 211 212 213 216 219 223 221 226 237 252 270 279 286 296 309 318 321 321 323 324 322 319 317 314 310 308 307
121 90 65 44 73 322 221 194 254 192 222 248 245 252 246 236 230 224 219 213 211 209 207 209 211 214 216 218 219 225 235 254 272 279 284 296 309 318 320 325 329 327 324 324 322 317 313 311 307
136 140 5 327 350 232 332 239 251 267 263 245 265 284 277 244 227 222 215 208 208 205 202 206 209 212 213 214 218 225 237 255 268 274 282 297 312 318 326 333 332 331 331 332 329 328 324 322 316
175 161 165 202 248 292 74 240 244 249 272 269 265 265 263 263 225 219 214 207 204 201 200 204 207 210 212 213 218 226 239 255 264 268 278 300 315 327 339 337 339 340 338 336 334 331 327 326 321
227 191 174 56 83 23 244 287 286 282 270 274 262 268 259 245 227 217 212 207 201 199 202 204 206 209 211 215 220 228 241 254 258 264 280 300 316 339 340 340 344 346 345 340 336 330 328 330 331
166 219 80 23 238 262 276 274 240 304 310 349 320 281 278 247 223 212 210 206 202 201 203 204 208 211 211 215 222 231 240 250 254 258 274 293 326 340 339 346 353 357 351 343 339 337 330 320 314
128 279 11 138 159 211 300 264 222 259 6 350 322 330 311 247 223 214 210 207 204 202 204 205 206 209 211 217 224 232 240 245 244 248 265 288 330 340 335 357 3 357 355 351 350 351 344 333 324
180 208 179 174 232 229 189 266 279 240 307 297 347 0 348 297 246 225 216 209 206 205 205 206 207 210 214 220 226 231 236 239 241 245 259 279 322 331 326 1 10 358 1 3 359 358 355 348 341